Preview of NWS' New Version of Forecast
This preview is not operational and should not be used for support decisions.

Regional Weather Roundup (RWR)

Issued by National Weather Service (NWS)

                            
000
ASPQ40 PGUM 180310
RWRPQ 
WEATHER ROUNDUP FOR THE MARIANAS AND MICRONESIA
NATIONAL WEATHER SERVICE TIYAN GU
100 PM CHST TUE JUN 18 2019

GUZ001>004-180400-
MARIANA ISLANDS-
  
CITY           SKY/WX    TMP DP  RH WIND       PRES   REMARKS
GUAM AIRPORT   PTSUNNY   88  73  62 E12       29.86F HX  96           
ANDERSEN AFB   PTSUNNY   86  75  70 E13       29.87F HX  95           
ROTA AIRPORT   MOSUNNY   88  72  58 E16       29.85F HX  94           
TINIAN AP      NOT AVBL                                               
SAIPAN AP      MOSUNNY   90  73  58 E15       29.86F HX  98           

$$

PMZ161-180400-
REPUBLIC OF PALAU-
  
CITY           SKY/WX    TMP DP  RH WIND       PRES   REMARKS
KOROR AP       PTSUNNY   82  75  78 SE6       29.82F                  
KOROR WSO      NOT AVBL                                               

$$

PMZ171>174-180400-
FEDERATED STATES OF MICRONESIA-
  
CITY           SKY/WX    TMP DP  RH WIND       PRES   REMARKS
YAP AIRPORT    PTSUNNY   91  81  70 E8        29.80F HX 110           
CHUUK AP       CLOUDY    90  81  74 NE7       29.77F HX 108           
POHNPEI AP     CLOUDY    90  79  70 E10       29.75F HX 105           
POHNPEI WSO    PTSUNNY   88  77  70 E3        29.78F HX 100           
KOSRAE AP      PTSUNNY   88  77  70 NE9       29.73F HX 100           

$$

PMZ181-180400-
REPUBLIC OF THE MARSHALL ISLANDS-
  
CITY           SKY/WX    TMP DP  RH WIND       PRES   REMARKS
KWAJALEIN AP   SUNNY     86  75  70 NE13      29.78F HX  95           
MAJURO AP      NOT AVBL                                               
MAJURO WSO     PTSUNNY   84  77  79 E6        29.75F HX  94           

$$